Hourly Weather Roundup
Issued by NWS Central Illinois

Home | Current Version | Previous Version | Graphics & Text | Print | Product List | Glossary On
Versions: 1 2 3 4 5 6 7 8 9 10 11 12 13 14 15 16 17 18 19 20 21 22 23 24 25 26 27 28 29 30 31 32 33 34 35 36 37 38 39 40 41 42 43 44 45 46 47 48 49 50
000
NZUS43 KILX 031610
HWRILX

AREA WEATHER ROUNDUP
NATIONAL WEATHER SERVICE, LINCOLN IL
1100 AM CDT SUN MAY 03 2015


CITY           SKY/WX    TMP DP  RH WIND       PRES   REMARKS
BLOOMINGTON    MOSUNNY   76  51  41 SW17      30.01S
CHAMPAIGN      MOSUNNY   79  41  25 S22G28    30.03S
DANVILLE       PTSUNNY   75  46  35 S17       30.02S
DECATUR        SUNNY     77  49  37 SW16      30.02F
EFFINGHAM      SUNNY     74  41  29 S13       30.08S
FLORA          MOSUNNY   74  46  36 SW14      30.08S
GALESBURG      PTSUNNY   71  53  51 S14       29.92F
JACKSONVILLE   SUNNY     79  51  38 S10       29.98S
LACON          MOSUNNY   72  50  45 SW12      29.96S
LAWRENCEVILLE  MOSUNNY   76  47  35 S14G20    30.09S
LITCHFIELD     SUNNY     74  48  39 S13G18    30.03S
$$


CITY           SKY/WX    TMP DP  RH WIND       PRES   REMARKS
LINCOLN        SUNNY     77  49  36 SW8       29.98S
MACOMB         PTSUNNY   74  51  44 S15       29.97S
MATTOON        MOSUNNY   72  43  35 S15       30.06S
MT CARMEL AP   MOSUNNY   77  39  25 S14       30.08F
OLNEY-NOBLE AP SUNNY     73  46  38 SW8       30.08S
PARIS          MOSUNNY   75  48  37 S15G22    30.07S
PEORIA         SUNNY     76  51  41 S10       29.97F
PONTIAC        CLOUDY    75  48  38 S14       30.00S
RANTOUL        PTSUNNY   79  42  27 SW17G24   30.02S
ROBINSON       MOSUNNY   76  45  32 SW12      30.09S
SPRINGFIELD    SUNNY     78  51  38 S13       30.00S
TAYLORVILLE    SUNNY     77  48  36 S16       30.02S
$$

...REGIONAL REPORTS...


CITY           SKY/WX    TMP DP  RH WIND       PRES   REMARKS
CHICAGO O`HARE PTSUNNY   72  45  37 SW12G22   29.97S
KANKAKEE       PTSUNNY   74  50  42 SW15G22   30.01F
MOLINE         CLOUDY    70  54  56 S13       29.87F
MOUNT VERNON   SUNNY     75  50  41 SW16      30.09S
PITTSFIELD     MOSUNNY   76  52  42 S13G20    29.98S
QUINCY         MOSUNNY   72  53  51 S12       29.95S
ROCKFORD       CLOUDY    73  52  47 SW20G26   29.95S
$$


CITY           SKY/WX    TMP DP  RH WIND       PRES   REMARKS
BURLINGTON     CLOUDY    70  54  56 S16       29.90F
CEDAR RAPIDS   CLOUDY    57  55  93 VRB6      29.89R
DES MOINES     CLOUDY    75  58  55 S14       29.81S
KIRKSVILLE     SUNNY     73  58  59 SW16G25   29.92S
OTTUMWA        MOSUNNY   65  56  72 S17G24    29.86R
ST LOUIS       PTSUNNY   78  51  38 S10       30.02F
$$


CITY           SKY/WX    TMP DP  RH WIND       PRES   REMARKS
TERRE HAUTE    MOSUNNY   73  49  42 SW13      30.08S
EVANSVILLE     MOSUNNY   74  50  42 S10       30.11S
INDIANAPOLIS   PTSUNNY   72  50  45 S10G21    30.08S
LAFAYETTE      MOSUNNY   72  45  37 SW13      30.05S
MADISON        CLOUDY    67  50  54 S10       29.89F
MILWAUKEE      CLOUDY    70  45  40 S15       29.94R
$$





USA.gov is the U.S. government's official web portal to all federal, state and local government web resources and services.